Weather History for Newark, NJ

Change the Weather History Date:

Saturday, August 9, 2014

  Actual Average Record
Temperature  
Mean Temperature 77 °F 77 °F  
Max Temperature 88 °F 85 °F 105 °F (2001)
Min Temperature 65 °F 68 °F 58 °F (1944)
Degree Days  
Heating Degree Days 0 0  
Month to date heating degree days 0 0  
Since 1 June heating degree days 0 17  
Since 1 July heating degree days 0 0  
Cooling Degree Days 12 12  
Month to date cooling degree days 99 108  
Year to date cooling degree days 788 806  
Since 1 June cooling degree days 726 730  
Growing Degree Days 26 (Base 50)    
Moisture  
Dew Point 54 °F    
Average Humidity 49    
Maximum Humidity 68    
Minimum Humidity 29    
Precipitation  
Precipitation 0.00 in 0.14 in 3.25 in (1942)
Month to date precipitation 0.58 1.30  
Year to date precipitation 33.44 28.97  
Snow  
Snow 0.00 in 0.00 in 0.00 in (2002)
Month to date snowfall 0.0 0.0  
Since 1 July snowfall 0.0 0.0  
Snow Depth 0.00 in    
Sea Level Pressure  
Sea Level Pressure 30.09 in    
Wind  
Wind Speed 4 mph (North)    
Max Wind Speed 15 mph    
Max Gust Speed 22 mph    
Visibility 10 miles    
Events      
T = Trace of Precipitation, MM = Missing Value Source: NWS Daily Summary

Daily Weather History Graph

Daily Weather History Graph

Search for Another Location

Airport:

Trip Planner

Search our weather history database for the weather conditions in past years. The results will help you decide how hot, cold, wet, or windy it might be!

Date:

Astronomy

Aug. 09, 2014 Rise Set
Actual Time 6:01 AM EDT 8:02 PM EDT
Civil Twilight 5:31 AM EDT 8:32 PM EDT
Nautical Twilight 4:54 AM EDT 9:08 PM EDT
Astronomical Twilight 4:14 AM EDT 9:48 PM EDT
Moon 7:01 PM EDT (8/9) 4:38 AM EDT (8/9)
Length of Visible Light 15h 01m
Length of Day
14h 01m
Waxing Gibbous, 98% of the Moon is Illuminated
Aug 9
Waxing Gibbous
Aug 10
Full
Aug 17
Last Quarter
Aug 25
New
Sep 2
First Quarter

Hourly Weather History & Observations

Time (EDT) Temp. Heat Index Dew Point Humidity Pressure Visibility Wind Dir Wind Speed Gust Speed Precip Events Conditions
12:51 AM 73.0 °F - 54.0 °F 51% 30.07 in 10.0 mi NNW 6.9 mph - N/A   Partly Cloudy
1:51 AM 72.0 °F - 54.0 °F 53% 30.07 in 10.0 mi North 4.6 mph - N/A   Partly Cloudy
2:51 AM 71.6 °F - 55.4 °F 57% 30.07 in 10.0 mi NW 3.5 mph - N/A   Partly Cloudy
3:51 AM 70.0 °F - 55.0 °F 59% 30.08 in 10.0 mi NNW 5.8 mph - N/A   Partly Cloudy
4:51 AM 68.0 °F - 55.4 °F 64% 30.08 in 10.0 mi Calm Calm - N/A   Partly Cloudy
5:51 AM 66.9 °F - 55.9 °F 68% 30.10 in 10.0 mi NNE 3.5 mph - N/A   Partly Cloudy
6:51 AM 68.0 °F - 57.0 °F 68% 30.12 in 10.0 mi NNE 3.5 mph - N/A   Partly Cloudy
7:51 AM 71.6 °F - 57.2 °F 60% 30.12 in 10.0 mi NE 3.5 mph - N/A   Partly Cloudy
8:51 AM 75.2 °F - 57.2 °F 53% 30.12 in 10.0 mi NNE 4.6 mph - N/A   Clear
9:51 AM 78.1 °F - 55.9 °F 46% 30.11 in 10.0 mi NNE 8.1 mph - N/A   Clear
10:51 AM 81.0 °F 80.8 °F 55.9 °F 42% 30.12 in 10.0 mi North 8.1 mph - N/A   Partly Cloudy
11:51 AM 82.0 °F 81.2 °F 53.1 °F 37% 30.11 in 10.0 mi NE 6.9 mph - N/A   Scattered Clouds
12:51 PM 84.0 °F - 51.1 °F 32% 30.09 in 10.0 mi Variable 3.5 mph - N/A   Scattered Clouds
1:51 PM 82.9 °F - 51.1 °F 33% 30.09 in 10.0 mi Calm Calm - N/A   Scattered Clouds
2:51 PM 84.2 °F - 51.8 °F 33% 30.08 in 10.0 mi NNW 8.1 mph - N/A   Mostly Cloudy
3:51 PM 84.9 °F - 51.1 °F 31% 30.07 in 10.0 mi East 5.8 mph - N/A   Mostly Cloudy
4:51 PM 84.9 °F - 48.9 °F 29% 30.06 in 10.0 mi Variable 3.5 mph - N/A   Mostly Cloudy
5:51 PM 84.9 °F 83.2 °F 53.1 °F 33% 30.06 in 10.0 mi Variable 4.6 mph - N/A   Scattered Clouds
6:51 PM 84.0 °F 82.5 °F 53.1 °F 34% 30.06 in 10.0 mi Calm Calm - N/A   Scattered Clouds
7:51 PM 81.0 °F 80.5 °F 54.0 °F 39% 30.06 in 10.0 mi Calm Calm - N/A   Scattered Clouds
8:51 PM 80.1 °F 80.1 °F 55.0 °F 42% 30.08 in 10.0 mi SE 4.6 mph - N/A   Scattered Clouds
9:51 PM 75.2 °F - 59.0 °F 57% 30.09 in 10.0 mi SSW 3.5 mph - N/A   Scattered Clouds
10:51 PM 77.0 °F - 59.0 °F 54% 30.11 in 10.0 mi WSW 6.9 mph - N/A   Partly Cloudy